TimeCST,TemperatureF,Dew PointF,Humidity,Sea Level PressureIn,VisibilityMPH,Wind Direction,Wind SpeedMPH,Gust SpeedMPH,PrecipitationIn,Events,Conditions,WindDirDegrees,DateUTC
12:53 AM,51.1,39.0,63,30.17,10.0,ENE,5.8,-,N/A,,Mostly Cloudy,70,2013-01-08 06:53:00
1:53 AM,50.0,39.9,68,30.15,10.0,ENE,6.9,-,N/A,,Scattered Clouds,60,2013-01-08 07:53:00
2:53 AM,50.0,41.0,71,30.13,10.0,ENE,6.9,-,N/A,,Clear,60,2013-01-08 08:53:00
3:53 AM,48.9,39.9,71,30.13,10.0,East,5.8,-,N/A,,Clear,80,2013-01-08 09:53:00
4:53 AM,50.0,39.9,68,30.12,10.0,ENE,8.1,-,N/A,,Partly Cloudy,70,2013-01-08 10:53:00
5:50 AM,50.0,41.0,71,30.13,10.0,ENE,6.9,-,N/A,,Mostly Cloudy,70,2013-01-08 11:50:00
5:53 AM,50.0,41.0,71,30.13,10.0,East,5.8,-,N/A,,Mostly Cloudy,80,2013-01-08 11:53:00
6:18 AM,50.0,41.0,71,30.14,10.0,East,8.1,-,N/A,,Scattered Clouds,80,2013-01-08 12:18:00
6:53 AM,48.9,42.1,77,30.14,10.0,ENE,6.9,-,N/A,,Partly Cloudy,70,2013-01-08 12:53:00
7:53 AM,50.0,43.0,77,30.16,10.0,ENE,10.4,-,N/A,,Mostly Cloudy,70,2013-01-08 13:53:00
8:53 AM,53.1,45.0,74,30.18,10.0,East,9.2,-,N/A,,Mostly Cloudy,90,2013-01-08 14:53:00
9:53 AM,57.0,48.9,74,30.20,10.0,East,8.1,-,0.00,Rain,Light Rain,100,2013-01-08 15:53:00
10:53 AM,57.0,54.0,89,30.19,9.0,ESE,8.1,-,0.01,Rain,Light Rain,110,2013-01-08 16:53:00
11:53 AM,55.9,55.0,97,30.14,5.0,East,10.4,-,0.07,Rain,Rain,100,2013-01-08 17:53:00
12:07 PM,55.4,55.4,100,30.13,4.0,East,12.7,-,N/A,Rain,Light Rain,90,2013-01-08 18:07:00
12:53 PM,57.0,55.9,96,30.11,4.0,East,11.5,-,0.05,Rain,Light Rain,100,2013-01-08 18:53:00
1:53 PM,57.9,57.0,97,30.09,7.0,East,10.4,-,0.04,Rain,Light Rain,100,2013-01-08 19:53:00
2:53 PM,57.9,57.9,100,30.09,3.0,ESE,11.5,-,0.04,Rain,Rain,110,2013-01-08 20:53:00
3:53 PM,60.1,59.0,96,30.07,6.0,ESE,17.3,-,0.18,Rain,Light Rain,110,2013-01-08 21:53:00
4:53 PM,60.1,59.0,96,30.08,6.0,ESE,12.7,-,0.05,Rain,Light Rain,110,2013-01-08 22:53:00
5:53 PM,61.0,60.1,97,30.10,9.0,ESE,9.2,-,0.03,Rain,Light Rain,120,2013-01-08 23:53:00
6:00 PM,60.8,60.8,100,30.11,5.0,SE,11.5,-,0.02,Rain,Rain,130,2013-01-09 00:00:00
6:49 PM,62.6,62.6,100,30.10,2.0,ESE,8.1,-,0.35,Rain,Heavy Rain,110,2013-01-09 00:49:00
6:53 PM,63.0,62.1,97,30.10,1.8,East,12.7,18.4,0.49,Rain,Heavy Rain,80,2013-01-09 00:53:00
6:57 PM,62.6,62.6,100,30.10,2.0,East,11.5,18.4,0.04,Rain,Heavy Rain,80,2013-01-09 00:57:00
7:03 PM,62.6,62.6,100,30.10,5.0,East,12.7,-,0.07,Rain,Rain,80,2013-01-09 01:03:00
7:13 PM,62.6,62.6,100,30.09,6.0,East,11.5,-,0.09,Rain,Rain,100,2013-01-09 01:13:00
7:53 PM,63.0,62.1,97,30.10,6.0,East,10.4,-,0.16,Rain,Rain,80,2013-01-09 01:53:00
8:02 PM,62.6,62.6,100,30.12,8.0,ESE,11.5,-,0.02,Rain,Rain,110,2013-01-09 02:02:00
8:40 PM,60.8,60.8,100,30.12,3.0,East,10.4,-,0.25,Rain,Heavy Rain,90,2013-01-09 02:40:00
8:53 PM,61.0,60.1,97,30.12,5.0,East,9.2,-,0.33,Rain,Heavy Rain,80,2013-01-09 02:53:00
9:38 PM,60.8,60.8,100,30.14,2.5,East,11.5,-,0.26,Rain,Heavy Rain,90,2013-01-09 03:38:00
9:53 PM,62.1,61.0,96,30.13,3.0,ENE,15.0,-,0.56,Rain,Heavy Rain,70,2013-01-09 03:53:00
10:04 PM,62.6,60.8,94,30.13,1.8,East,12.7,-,0.22,Rain,Heavy Rain,90,2013-01-09 04:04:00
10:29 PM,62.6,60.8,94,30.12,3.0,ENE,13.8,-,0.69,Rain,Heavy Rain,70,2013-01-09 04:29:00
10:53 PM,62.1,61.0,96,30.12,6.0,ENE,11.5,-,0.79,Rain,Rain,60,2013-01-09 04:53:00
11:01 PM,62.6,60.8,94,30.12,4.0,ENE,11.5,-,0.05,Rain,Heavy Rain,70,2013-01-09 05:01:00
11:08 PM,62.6,60.8,94,30.12,3.0,ENE,12.7,-,0.14,Rain,Heavy Rain,70,2013-01-09 05:08:00
11:24 PM,62.6,60.8,94,30.11,5.0,ENE,11.5,-,0.24,Rain,Heavy Rain,60,2013-01-09 05:24:00
11:53 PM,62.1,61.0,96,30.12,4.0,East,8.1,-,0.36,Rain,Heavy Rain,90,2013-01-09 05:53:00